This demonstration page uses our WeatherBlox Daily Observations layout. Learn more.

Left ArrowRight Arrow

Hourly Observations for November 13, 2020

Temp ( °F °C ) Dew Point ( °F °C ) Humidity (%) Winds ( mph kmh ) Pressure ( in mb ) Visibility ( mi km ) Precip ( " mm )
12:53 am 00:53 Clear 29 -1.7 28 -2.2 96 96 Calm 30.05 1018 8 13 0.00 0.00
1:53 am 01:53 Clear 30 -1.1 29 -1.7 96 96 Calm 30.05 1018 7 11 0.00 0.00
2:53 am 02:53 Partly Cloudy 33 0.6 32 0 96 96 Calm 30.06 1018 8 13 0.00 0.00
3:53 am 03:53 Partly Cloudy 34 1.1 33 0.6 97 97 Calm 30.05 1018 9 14 0.00 0.00
4:53 am 04:53 Cloudy 36 2.2 35 1.7 97 97 Calm 30.07 1018 10 16 0.00 0.00
5:53 am 05:53 Mostly Cloudy 35 1.7 34 1.1 96 96 Calm 30.08 1019 10 16 0.00 0.00
6:53 am 06:53 Mostly Clear with Mist and Fog 33 0.6 31 -0.6 92 92 Calm 30.09 1019 6 10 0.00 0.00
7:53 am 07:53 Sunny with Mist and Fog 31 -0.6 30 -1.1 96 96 Calm 30.11 1020 3 5 0.00 0.00
8:53 am 08:53 Sunny 40 4.4 37 2.8 89 89 Calm 30.13 1020 9 14 0.00 0.00
9:53 am 09:53 Sunny 47 8.3 38 3.3 71 71 Calm 30.15 1021 10 16 0.00 0.00
10:53 am 10:53 Sunny 53 11.7 39 3.9 59 59 WSW 3 6 30.15 1021 10 16 0.00 0.00
11:53 am 11:53 Sunny 54 12.2 38 3.3 55 55 NNW 9 15 30.15 1021 10 16 0.00 0.00
12:53 pm 12:53 Sunny 56 13.3 36 2.2 47 47 NW 12 19 30.15 1021 10 16 0.00 0.00
1:53 pm 13:53 Sunny 57 13.9 35 1.7 44 44 W 10 17 30.14 1021 10 16 0.00 0.00
2:53 pm 14:53 Sunny 55 12.8 38 3.3 53 53 NW 13 20 30.15 1021 10 16 0.00 0.00
3:53 pm 15:53 Sunny 51 10.6 36 2.2 56 56 NW 15 24 30.18 1022 10 16 0.00 0.00
4:53 pm 16:53 Sunny 48 8.9 32 0 54 54 WNW 12 19 30.19 1022 10 16 0.00 0.00
5:53 pm 17:53 Clear 41 5 31 -0.6 67 67 NW 5 7 30.19 1022 10 16 0.00 0.00
6:53 pm 18:53 Clear 36 2.2 30 -1.1 79 79 Calm 30.21 1023 10 16 0.00 0.00
7:53 pm 19:53 Clear 33 0.6 29 -1.7 85 85 Calm 30.23 1024 10 16 0.00 0.00
8:53 pm 20:53 Clear 30 -1.1 27 -2.8 88 88 Calm 30.22 1023 10 16 0.00 0.00
9:53 pm 21:53 Clear 28 -2.2 25 -3.9 88 88 Calm 30.23 1024 10 16 0.00 0.00
10:53 pm 22:53 Clear 27 -2.8 24 -4.4 89 89 Calm 30.23 1024 10 16 0.00 0.00
11:53 pm 23:53 Clear 27 -2.8 24 -4.4 89 89 Calm 30.22 1023 10 16 0.00 0.00

Powered by AerisWeather